YO8RXT-3 Weather Reports


time (UTC)temp
F
wind
direction
speed
knots
gust
knots
rain 1hr
in
rain 24hr
in
rain mn
in
humidity
%
barometer
mb
20260503053504 43 220 1.7 0.0 0.00 0.00 0.00 61 1023.0
20260503050503 43 220 1.7 0.0 0.00 0.00 0.00 61 1023.0
20260503043503 41 1.7 0.0 0.00 0.00 0.00 66 1023.0
20260503040504 39 0 0.0 0.0 0.00 0.00 0.00 70 1023.0
20260503033502 36 0 0.0 0.0 0.00 0.00 0.00 75 1023.0
20260503030503 36 0 0.0 0.0 0.00 0.00 0.00 75 1023.0
20260503023503 34 260 0.9 0.0 0.00 0.00 0.00 75 1023.0
20260503020502 37 290 2.6 0.0 0.00 0.00 0.00 65 1023.0
20260503013503 39 280 1.7 0.0 0.00 0.00 0.00 65 1023.0
20260503010503 39 0 0.0 0.0 0.00 0.00 0.00 65 1023.0
20260503003502 39 290 0.9 0.0 0.00 0.00 0.00 70 1023.0
20260503000502 37 250 0.9 0.0 0.00 0.00 0.00 70 1023.0
20260502233502 43 280 1.7 0.0 0.00 0.00 0.00 61 1023.0
20260502230502 45 0 0.0 0.0 0.00 0.00 0.00 53 1023.0
20260502223502 45 0 0.0 0.0 0.00 0.00 0.00 49 1023.0
20260502220503 45 0.9 0.0 0.00 0.00 0.00 49 1023.0
20260502213502 45 0 0.0 0.0 0.00 0.00 0.00 49 1023.0
20260502210502 46 0.9 0.0 0.00 0.00 0.00 46 1023.0
20260502203502 46 0 0.0 0.0 0.00 0.00 0.00 43 1023.0
20260502200503 48 110 2.6 0.0 0.00 0.00 0.00 40 1023.0
20260502193503 48 70 2.6 0.0 0.00 0.00 0.00 40 1023.0
20260502190502 48 50 5.2 0.0 0.00 0.00 0.00 40 1023.0
20260502183503 50 50 5.2 0.0 0.00 0.00 0.00 37 1023.0
20260502180503 50 50 5.2 0.0 0.00 0.00 0.00 40 1023.0
20260502170503 54 70 4.3 0.0 0.00 0.00 0.00 35 1023.0
20260502163503 55 80 6.1 0.0 0.00 0.00 0.00 31 1023.0
20260502160502 55 90 5.2 0.0 0.00 0.00 0.00 31 1023.0
20260502150502 55 50 7.0 0.0 0.00 0.00 0.00 28 1023.0
20260502130502 55 70 7.8 0.0 0.00 0.00 0.00 33 1023.0
20260502123503 55 70 6.1 0.0 0.00 0.00 0.00 33 1024.0
20260502120503 57 70 7.8 0.0 0.00 0.00 0.00 31 1024.0
20260502113502 55 60 7.8 0.0 0.00 0.00 0.00 31 1024.0
20260502110502 55 70 7.8 0.0 0.00 0.00 0.00 31 1024.0
20260502103503 55 100 7.0 0.0 0.00 0.00 0.00 33 1024.0
20260502100502 54 50 7.0 0.0 0.00 0.00 0.00 38 1024.0
20260502090503 54 140 6.1 0.0 0.00 0.00 0.00 44 1024.0
20260502070503 48 70 2.6 0.0 0.00 0.00 0.00 62 1024.0
20260502063502 48 60 2.6 0.0 0.00 0.00 0.00 62 1024.0
20260502060502 46 310 2.6 0.0 0.00 0.00 0.00 76 1024.0